Regional Weather Roundup
Issued by NWS

Home | Current Version | Previous Version | Graphics & Text | Print | Product List | Glossary On
Versions: 1 2 3 4 5 6 7 8 9 10 11 12 13 14 15 16 17 18 19 20 21 22 23 24 25 26 27 28 29 30 31 32 33 34 35 36 37 38 39 40 41 42 43 44 45 46 47 48 49 50
905
ASUS43 KMKX 280621
RWRWI

WISCONSIN REGIONAL WEATHER ROUNDUP
NATIONAL WEATHER SERVICE MILWAUKEE/SULLIVAN WI
100 AM CDT THU JUL 28 2016

NOTE: "FAIR" INDICATES FEW OR NO CLOUDS BELOW 12,000 FEET WITH NO
SIGNIFICANT WEATHER AND/OR OBSTRUCTIONS TO VISIBILITY.

WIZ001-002-006>008-014>016-023>028-280700-
NORTHWEST WISCONSIN

CITY           SKY/WX    TMP DP  RH WIND       PRES   REMARKS
SUPERIOR ARPT  MOCLDY    57  57  98 NE5       30.05S
6HR MIN TEMP:  57; 6HR MAX TEMP:  63;

ASHLAND        CLOUDY    61  60  97 N7        30.04S
6HR MIN TEMP:  60; 6HR MAX TEMP:  64;

HAYWARD        CLOUDY    63  61  93 NE8       30.03S
6HR MIN TEMP:  63; 6HR MAX TEMP:  64; 6HR PCP:  0.06;

SIREN          NOT AVBL
CUMBERLAND     CLOUDY    63  61  94 N3        30.01R
RICE LAKE      MOCLDY    65  64  96 N5        30.00F
6HR MIN TEMP:  63; 6HR MAX TEMP:  67;

CHETEK         MOCLDY    66  64  94 N5        29.99F
LADYSMITH      CLOUDY    65  64  95 NE5       30.01F
6HR MIN TEMP:  64; 6HR MAX TEMP:  66; 6HR PCP:  0.10;

EAU CLAIRE     CLOUDY    66  65  96 N5        29.96S
6HR MIN TEMP:  66; 6HR MAX TEMP:  68; 6HR PCP:  0.15;

MENOMONIE      RAIN      66  65  99 N6        29.98R
6HR MIN TEMP:  66; 6HR MAX TEMP:  69; 6HR PCP:  0.02;

NEW RICHMOND   CLOUDY    66  65  97 N7        29.99S
6HR MIN TEMP:  65; 6HR MAX TEMP:  69;

OSCEOLA        CLOUDY    65  65 100 N7        30.03R
6HR MIN TEMP:  65; 6HR MAX TEMP:  70;

$$

WIZ003>005-009-010-017-018-280700-
NORTH CENTRAL WISCONSIN

CITY           SKY/WX    TMP DP  RH WIND       PRES   REMARKS
MANITOWISH WTR CLOUDY    63  63 100 N5        30.04R
6HR MIN TEMP:  63; 6HR MAX TEMP:  65; 6HR PCP:  0.29;

ARBOR VITAE    CLOUDY    63  62  95 N6        30.03R
6HR MIN TEMP:  63; 6HR MAX TEMP:  69; 6HR PCP:  1.14;

WOODRUFF       CLOUDY    63  62  95 N6        30.03R
6HR MIN TEMP:  63; 6HR MAX TEMP:  69; 6HR PCP:  1.14;

RHINELANDER    CLOUDY    65  63  93 NE5       30.03R
6HR MIN TEMP:  63; 6HR MAX TEMP:  69; 6HR PCP:  0.62;

EAGLE RIVER    CLOUDY    61  61  99 E8        30.03R
6HR MIN TEMP:  61; 6HR MAX TEMP:  68;

LAND O LAKES   CLOUDY    61  60  97 N5        30.05S
6HR MIN TEMP:  60; 6HR MAX TEMP:  67; 6HR PCP:  0.06;

PHILLIPS       CLOUDY    64  63  99 CALM      30.01S
6HR MIN TEMP:  63; 6HR MAX TEMP:  65; 6HR PCP:  0.26;

TOMAHAWK       CLOUDY    63  61  96 CALM      30.02R
6HR MIN TEMP:  62; 6HR MAX TEMP:  65;

MEDFORD        RAIN      62  62 100 E6        29.99F
6HR MIN TEMP:  62; 6HR MAX TEMP:  63; 6HR PCP:  0.46;

MERRILL        LGT RAIN  63  63 100 CALM      30.01R
6HR MIN TEMP:  62; 6HR MAX TEMP:  64; 6HR PCP:  0.86;

$$

WIZ029-030-035-036-043>047-280700-
CENTRAL WISCONSIN

CITY           SKY/WX    TMP DP  RH WIND       PRES   REMARKS
WAUSAU         HVY RAIN  64  63  96 SE5       29.98S FOG
6HR MIN TEMP:  64; 6HR MAX TEMP:  68; 6HR PCP:  0.57;

MOSINEE        RAIN      63  63 100 E5        30.00R
MARSHFIELD     CLOUDY    66  63  90 E9        29.96F
6HR MIN TEMP:  66; 6HR MAX TEMP:  68; 6HR PCP:  0.13;

STEVENS POINT  CLOUDY    63  63  98 E5        29.99R
6HR MIN TEMP:  63; 6HR MAX TEMP:  70; 6HR PCP:  0.33;

WAUPACA        CLOUDY    67  67  99 CALM      29.98F
6HR MIN TEMP:  67; 6HR MAX TEMP:  78;

WAUTOMA        CLOUDY    68  66  94 E7        29.97S
6HR MIN TEMP:  68; 6HR MAX TEMP:  76; 6HR PCP:  0.15;

WISC RAPIDS    CLOUDY    66  63  90 W7        29.99R
6HR MIN TEMP:  66; 6HR MAX TEMP:  68; 6HR PCP:  0.44;

CAMP DOUGLAS   CLOUDY    69  67  96 NE6       29.93F
6HR MIN TEMP:  67; 6HR MAX TEMP:  77; 6HR PCP:  0.43;

$$

WIZ011>013-019>022-031-037>040-048>050-280700-
NORTHEAST WISCONSIN

CITY           SKY/WX    TMP DP  RH WIND       PRES   REMARKS
ANTIGO         CLOUDY    63  63  99 CALM      30.01S
6HR MIN TEMP:  62; 6HR MAX TEMP:  70; 6HR PCP:  0.77;

SHAWANO        LGT RAIN  68  65  91 E7        29.99F
6HR MIN TEMP:  67; 6HR MAX TEMP:  76; 6HR PCP:  0.26;

OCONTO         CLOUDY   N/A N/A N/A NE3       30.00F
STURGEON BAY   LGT RAIN  67  64  90 N13G20    30.02R
6HR MIN TEMP:  67; 6HR MAX TEMP:  74; 6HR PCP: TRACE;

GREEN BAY      RAIN      67  67 100 NE12      30.00R FOG
6HR MIN TEMP:  67; 6HR MAX TEMP:  75; 6HR PCP:  0.43;

MANITOWOC      LGT RAIN  70  65  84 CALM      29.99R
6HR MIN TEMP:  68; 6HR MAX TEMP:  75; 6HR PCP:  0.01;

APPLETON       CLOUDY    66  64  94 NE8       29.97F
CLINTONVILLE   LGT RAIN  64  63  94 CALM      29.99S
OSHKOSH        CLOUDY    73  63  70 NE7       29.97S
6HR MIN TEMP:  71; 6HR MAX TEMP:  77;

$$

WIZ032>034-041-042-053>061-280700-
SOUTHWEST WISCONSIN

CITY           SKY/WX    TMP DP  RH WIND       PRES   REMARKS
LA CROSSE      CLOUDY    72  67  84 E6        29.91F
6HR MIN TEMP:  72; 6HR MAX TEMP:  82;

SPARTA         CLOUDY    66  65  97 CALM      29.94F
6HR MIN TEMP:  66; 6HR MAX TEMP:  79;

VIROQUA        CLOUDY    71  67  88 S3        29.94F
6HR MIN TEMP:  69; 6HR MAX TEMP:  77;

BOSCOBEL       FOG       68  67  96 CALM      29.92F VSB 3/4
6HR MIN TEMP:  67; 6HR MAX TEMP:  82;

PRAIRIE DU CHI CLEAR     68  66  91 E3        29.92S
6HR MIN TEMP:  68; 6HR MAX TEMP:  81;

PLATTEVILLE    CLEAR     71  67  89 E3        29.94F
6HR MIN TEMP:  69; 6HR MAX TEMP:  80;

$$

WIZ056-057-062-063-064-067-068-280700-
SOUTH CENTRAL WISCONSIN

CITY           SKY/WX    TMP DP  RH WIND       PRES   REMARKS
REEDSBURG      MOCLDY    70  70 100 CALM      29.93F
BARABOO/DELLS  MOCLDY    70  67  92 NE7       29.94F
6HR MIN TEMP:  70; 6HR MAX TEMP:  77;

LONE ROCK      PTCLDY    67  65  93 CALM      29.93F FOG
6HR MIN TEMP:  67; 6HR MAX TEMP:  83;

MINERAL POINT  CLEAR     70  68  94 CALM      29.94F
MADISON        CLOUDY    73  68  84 SE3       29.93F
6HR MIN TEMP:  72; 6HR MAX TEMP:  80;

MIDDLETON      CLOUDY    71  69  94 CALM      29.94F
6HR MIN TEMP:  71; 6HR MAX TEMP:  80;

WATERTOWN      CLOUDY    70  70 100 CALM      29.94F
6HR MIN TEMP:  68; 6HR MAX TEMP:  77;

MONROE         PTCLDY    70  64  83 CALM      29.95S
JANESVILLE     CLOUDY    72  70  94 CALM      29.93F
$$

WIZ051-052-058>065-066-070>072-280700-
SOUTHEAST WISCONSIN

CITY           SKY/WX    TMP DP  RH WIND       PRES   REMARKS
MILWAUKEE      PTCLDY    71  68  90 N5        29.95S
6HR MIN TEMP:  71; 6HR MAX TEMP:  77;

WAUKESHA       PTCLDY    68  64  88 E3        29.96F
MILWAUKEE/TIMM CLEAR     70  64  83 NE3       29.97R
RACINE         PTCLDY    71  68  90 CALM      29.96S
6HR MIN TEMP:  69; 6HR MAX TEMP:  75;

BURLINGTON     MOCLDY    68  67  96 CALM      29.95S
6HR MIN TEMP:  68; 6HR MAX TEMP:  79;

KENOSHA        CLOUDY    75  73  93 CALM      29.95S
6HR MIN TEMP:  72; 6HR MAX TEMP:  79;

FOND DU LAC    CLOUDY    71  65  81 NE5       29.97S
6HR MIN TEMP:  68; 6HR MAX TEMP:  78;

SHEBOYGAN      CLOUDY    66  65  96 CALM      29.97R FOG
6HR MIN TEMP:  64; 6HR MAX TEMP:  72; 6HR PCP: TRACE;

WEST BEND      CLEAR     64  63  94 CALM      29.96F
JUNEAU         MOCLDY    68  66  93 CALM      29.96F
6HR MIN TEMP:  67; 6HR MAX TEMP:  77;

$$

LSZ147-162-280700-
LAKE SUPERIOR

STATION/POSITION TIME  TEMP    WIND        PRES    WAVE
                       AIR SEA DIR/SP/G            HT/PER
                 (UTC) (F)     (DEG/KT/KT) (MB)    (FT/S)
W MID LAKE BUOY  0550   60 60  360/  6/  6 1017.2R   1
DEVILS ISLAND    0600   63      30/  8/ 10 1017.6R
PORT WING        0440   61      60/  5/  6 1017.6
SAXON HARBOR     0540   64      80/  2/  3 1016.6R
$$

LMZ867-665-643>646-280700-
LAKE MICHIGAN

STATION/POSITION TIME  TEMP    WIND        PRES    WAVE
                       AIR SEA DIR/SP/G            HT/PER
                 (UTC) (F)     (DEG/KT/KT) (MB)    (FT/S)
CHAMBERS ISLAND  0500   66     300/ 10/ 14 1016.6R
N MID LAKE BUOY  0550   68 70   10/ 12/ 14 1015.2R   2/ 4
NORTHPORT PIER   0500C1F1C2F2C3F3C4F4C5F5C6F6C7F7C8M1C9M2Ca!



USA.gov is the U.S. government's official web portal to all federal, state and local government web resources and services.